This is the latest recevied weather packets stored in our database for station/object KG7BDA. If no packets are shown the sender has not sent any weather packets the latest 10 day(s).
| Time | Temp. | Humidity | Pressure | Rain* | Wind** | Luminosity | Snow |
|---|---|---|---|---|---|---|---|
| 1777608550 | 13.89° C | 49% | 1019.1 hPa | 0 mm | - | - | - |
| 1777608189 | 13.89° C | 49% | 1019 hPa | 0 mm | - | - | - |
| 1777607829 | 13.89° C | 48% | 1019 hPa | 0 mm | - | - | - |
| 1777607109 | 13.89° C | 49% | 1018.8 hPa | 0 mm | - | - | - |
| 1777606750 | 14.44° C | 47% | 1018.8 hPa | 0 mm | - | - | - |
| 1777606389 | 14.44° C | 48% | 1018.1 hPa | 0 mm | - | - | - |
| 1777606030 | 13.89° C | 49% | 1018.1 hPa | 0 mm | - | - | - |
| 1777605670 | 13.89° C | 50% | 1017.9 hPa | 0 mm | - | - | - |
| 1777605310 | 13.89° C | 50% | 1017.8 hPa | 0 mm | - | - | - |
| 1777604950 | 13.89° C | 50% | 1017.8 hPa | 0 mm | - | - | - |
| 1777604589 | 14.44° C | 50% | 1017.7 hPa | 0 mm | - | - | - |
| 1777604229 | 14.44° C | 49% | 1017.8 hPa | 0 mm | - | - | - |
| 1777603869 | 14.44° C | 49% | 1017.8 hPa | 0 mm | - | - | - |
| 1777603509 | 15° C | 47% | 1017.7 hPa | 0 mm | - | - | - |
| 1777603150 | 15.56° C | 47% | 1017.6 hPa | 0 mm | - | - | - |
| 1777602790 | 15.56° C | 46% | 1017.7 hPa | 0 mm | - | - | - |
| 1777602429 | 16.11° C | 46% | 1017.7 hPa | 0 mm | - | - | - |
| 1777602069 | 16.11° C | 45% | 1017.6 hPa | 0 mm | - | - | - |
| 1777601710 | 16.67° C | 44% | 1017.6 hPa | 0 mm | - | - | - |
| 1777601350 | 17.22° C | 42% | 1017.4 hPa | 0 mm | - | - | - |
| 1777600989 | 17.22° C | 42% | 1017.6 hPa | 0 mm | - | - | - |
| 1777600629 | 17.78° C | 40% | 1017.5 hPa | 0 mm | - | - | - |
| 1777600270 | 17.78° C | 38% | 1017.5 hPa | 0 mm | - | - | - |
| 1777599910 | 18.33° C | 38% | 1017.5 hPa | 0 mm | - | - | - |
| 1777599196 | 18.33° C | 36% | 1017.4 hPa | 0 mm | - | - | - |
* Rain latest hour (hover to see other rain measurements)
** Current wind speed in m/s (hover to see current wind gust speed)